Weather History for St. Petersburg, FL

Change the Weather History Date:

Thursday, June 6, 2013

  Actual Average Record
Temperature  
Mean Temperature 79 °F -  
Max Temperature 81 °F 88 °F 97 °F (1985)
Min Temperature 77 °F 74 °F 67 °F (1954)
Cooling Degree Days 14    
Growing Degree Days 29 (Base 50)    
Moisture  
Dew Point 74 °F    
Average Humidity 88    
Maximum Humidity 96    
Minimum Humidity 74    
Precipitation  
Precipitation 2.40 in - - ()
Sea Level Pressure  
Sea Level Pressure 29.72 in    
Wind  
Wind Speed 23 mph (SSW)    
Max Wind Speed 33 mph    
Max Gust Speed 48 mph    
Visibility 6 miles    
Events Fog , Rain , Thunderstorm    
Averages and records for this station are not official NWS values.
T = Trace of Precipitation, MM = Missing Value Source: NWS Daily Summary

Daily Weather History Graph

Daily Weather History Graph

Search for Another Location

Airport:

Trip Planner

Search our weather history database for the weather conditions in past years. The results will help you decide how hot, cold, wet, or windy it might be!

Date:

Astronomy

Jun. 06, 2013 Rise Set
Actual Time 6:34 AM EDT 8:24 PM EDT
Civil Twilight 6:07 AM EDT 8:50 PM EDT
Nautical Twilight 5:35 AM EDT 9:22 PM EDT
Astronomical Twilight 5:02 AM EDT 9:56 PM EDT
Moon 5:06 AM EDT (6/6) 6:51 PM EDT (6/6)
Length of Visible Light 14h 43m
Length of Day
13h 50m
Waning Crescent, 4% of the Moon is Illuminated
Jun 6
Waning Crescent
Jun 8
New
Jun 16
First Quarter
Jun 23
Full
Jun 30
Last Quarter

Hourly Weather History & Observations

Time (EDT) Temp. Heat Index Dew Point Humidity Pressure Visibility Wind Dir Wind Speed Gust Speed Precip Events Conditions
12:53 AM 78.1 °F - 75.0 °F 90% 29.86 in 10.0 mi ESE 18.4 mph - 0.02 in Rain Light Rain
1:53 AM 78.1 °F - - N/A% 29.84 in 10.0 mi ESE 19.6 mph - 0.01 in Rain Light Rain
2:53 AM 78.1 °F - - N/A% 29.82 in 4.0 mi SE 17.3 mph - 0.09 in Rain Rain
3:53 AM 77.0 °F - - N/A% 29.78 in 10.0 mi SE 25.3 mph 32.2 mph 0.16 in Rain Light Rain
4:41 AM 78.1 °F - - N/A% 29.78 in 10.0 mi SE 23.0 mph - 0.00 in   Overcast
4:53 AM 78.1 °F - - N/A% 29.76 in 5.0 mi SSE 24.2 mph 31.1 mph 0.02 in Rain Light Rain
5:18 AM 77.0 °F - - N/A% 29.75 in 2.0 mi SSE 21.9 mph - 0.15 in Rain Heavy Rain
5:25 AM 77.0 °F - - N/A% 29.74 in 1.5 mi SSE 21.9 mph - 0.23 in Rain Heavy Rain
5:33 AM 77.0 °F - - N/A% 29.75 in 3.0 mi SE 18.4 mph - 0.26 in Rain Rain
5:53 AM 77.0 °F - - N/A% 29.74 in 8.0 mi SE 21.9 mph - 0.26 in Rain Light Rain
6:11 AM 77.0 °F - - N/A% 29.74 in 3.0 mi SE 18.4 mph - 0.06 in Rain Heavy Rain
6:36 AM 77.0 °F - - N/A% 29.73 in 10.0 mi SE 20.7 mph - 0.06 in Rain Light Rain
6:53 AM 77.0 °F - - N/A% 29.72 in 10.0 mi SE 24.2 mph - 0.06 in   Overcast
7:53 AM 77.0 °F - 75.9 °F 96% 29.72 in 6.0 mi SSE 24.2 mph - 0.01 in Rain Light Rain
8:01 AM 77.0 °F - 75.9 °F 96% 29.73 in 3.0 mi SSE 24.2 mph 31.1 mph 0.03 in Rain Rain
8:41 AM 77.0 °F - 73.9 °F 90% 29.73 in 4.0 mi SSE 23.0 mph - 0.09 in Rain Light Rain
8:50 AM 77.0 °F - 73.4 °F 89% 29.73 in 2.5 mi SSE 25.3 mph - 0.12 in Rain Rain
8:51 AM 77.0 °F - 73.9 °F 90% 29.73 in 2.5 mi SSE 24.2 mph - 0.12 in Rain Rain
9:05 AM 77.0 °F - 73.9 °F 90% 29.72 in 3.0 mi SSE 26.5 mph - 0.04 in Rain Light Rain
9:12 AM 77.0 °F - 75.0 °F 94% 29.71 in 4.0 mi SSE 27.6 mph - 0.05 in Rain Light Rain
9:27 AM 77.0 °F - 75.0 °F 94% 29.73 in 2.0 mi SSE 24.2 mph - 0.09 in Rain Rain
9:42 AM 77.0 °F - 75.0 °F 94% 29.73 in 1.5 mi SSE 18.4 mph - 0.19 in Rain Rain
9:53 AM 77.0 °F - 75.0 °F 94% 29.71 in 0.8 mi SSE 24.2 mph - 0.35 in Rain Heavy Rain
10:02 AM 77.0 °F - 75.0 °F 94% 29.70 in 1.5 mi SSE 32.2 mph 40.3 mph 0.05 in Rain Rain
10:08 AM 77.0 °F - 75.0 °F 94% 29.70 in 1.0 mi SSE 28.8 mph 40.3 mph 0.13 in Rain , Thunderstorm Heavy Rain
10:10 AM 77.0 °F - 75.0 °F 94% 29.70 in 0.8 mi South 33.4 mph 41.4 mph 0.15 in Rain , Thunderstorm Heavy Rain
10:23 AM 77.0 °F - 75.9 °F 96% 29.69 in 1.0 mi South 33.4 mph 48.3 mph 0.27 in Rain Rain
10:44 AM 78.1 °F - 75.9 °F 93% 29.69 in 1.5 mi South 31.1 mph 40.3 mph 0.34 in Rain , Thunderstorm Rain
10:53 AM 78.1 °F - 75.9 °F 93% 29.70 in 2.0 mi South 33.4 mph 39.1 mph 0.36 in Rain , Thunderstorm Light Thunderstorms and Rain
11:05 AM 78.1 °F - 75.9 °F 93% 29.69 in 2.5 mi South 27.6 mph - 0.03 in Rain , Thunderstorm Light Rain
11:13 AM 78.1 °F - 75.9 °F 93% 29.67 in 1.0 mi South 32.2 mph 39.1 mph 0.10 in Rain Heavy Rain
11:20 AM 78.1 °F - 77.0 °F 96% 29.67 in 0.5 mi South 33.4 mph 41.4 mph 0.25 in Fog , Rain Heavy Rain
11:25 AM 78.1 °F - 77.0 °F 96% 29.71 in 0.2 mi SW 27.6 mph 43.7 mph 0.45 in Fog , Rain , Thunderstorm Heavy Rain
11:36 AM 77.0 °F - 75.9 °F 96% 29.69 in 0.2 mi SW 27.6 mph 46.0 mph 0.88 in Fog , Rain , Thunderstorm Heavy Rain
11:42 AM 78.1 °F - 75.9 °F 93% 29.70 in 1.0 mi SSW 24.2 mph 40.3 mph 0.88 in Rain , Thunderstorm Light Rain
11:44 AM 78.1 °F - 75.9 °F 93% 29.70 in 3.0 mi SSW 25.3 mph 35.7 mph 0.88 in Rain , Thunderstorm Light Rain
11:51 AM 78.8 °F - 75.2 °F 89% 29.70 in 6.0 mi SSW 27.6 mph 42.6 mph 0.88 in   Overcast
11:53 AM 78.1 °F - 75.0 °F 90% 29.70 in 6.0 mi SSW 25.3 mph 42.6 mph 0.88 in   Overcast
12:07 PM 78.1 °F - 73.9 °F 87% 29.69 in 9.0 mi SSW 25.3 mph 35.7 mph N/A   Overcast
12:53 PM 80.1 °F 84.5 °F 73.9 °F 81% 29.68 in 10.0 mi SW 18.4 mph 28.8 mph N/A   Overcast
1:13 PM 81.0 °F 86.2 °F 73.9 °F 79% 29.69 in 10.0 mi SSW 25.3 mph 35.7 mph N/A   Overcast
1:53 PM 80.1 °F 84.5 °F 73.9 °F 81% 29.69 in 10.0 mi SW 24.2 mph 35.7 mph N/A   Overcast
2:53 PM 79.0 °F - 73.9 °F 84% 29.68 in 8.0 mi SSW 26.5 mph 40.3 mph N/A   Overcast
3:51 PM 78.8 °F - 75.2 °F 89% 29.65 in 3.0 mi SW 27.6 mph 38.0 mph 0.00 in Rain Light Rain
3:53 PM 79.0 °F - 75.0 °F 88% 29.65 in 3.0 mi SW 25.3 mph 38.0 mph 0.00 in Rain Light Rain
4:08 PM 79.0 °F - 75.0 °F 88% 29.66 in 1.8 mi SW 19.6 mph 36.8 mph 0.03 in Rain Light Rain
4:22 PM 78.1 °F - 75.9 °F 93% 29.65 in 3.0 mi SW 24.2 mph 39.1 mph 0.06 in Rain Light Rain
4:33 PM 79.0 °F - 75.0 °F 88% 29.66 in 10.0 mi SW 20.7 mph 36.8 mph 0.06 in   Overcast
4:53 PM 79.0 °F - 75.0 °F 88% 29.66 in 10.0 mi WSW 23.0 mph 34.5 mph 0.06 in   Overcast
5:53 PM 81.0 °F 85.8 °F 73.0 °F 77% 29.68 in 10.0 mi West 25.3 mph 33.4 mph N/A   Mostly Cloudy
6:14 PM 81.0 °F 85.8 °F 73.0 °F 77% 29.68 in 10.0 mi West 20.7 mph 32.2 mph N/A   Mostly Cloudy
6:24 PM 80.1 °F 83.8 °F 72.0 °F 76% 29.69 in 10.0 mi WSW 20.7 mph 29.9 mph N/A   Scattered Clouds
6:53 PM 80.1 °F 83.6 °F 71.1 °F 74% 29.69 in 10.0 mi WSW 18.4 mph 28.8 mph N/A   Partly Cloudy
7:53 PM 80.1 °F 83.8 °F 72.0 °F 76% 29.71 in 10.0 mi West 16.1 mph 26.5 mph N/A   Scattered Clouds
8:09 PM 79.0 °F - 72.0 °F 79% 29.72 in 10.0 mi West 16.1 mph 25.3 mph N/A   Mostly Cloudy
8:35 PM 79.0 °F - 72.0 °F 79% 29.72 in 10.0 mi WSW 16.1 mph 21.9 mph N/A   Mostly Cloudy
8:53 PM 79.0 °F - 73.0 °F 82% 29.73 in 10.0 mi WSW 16.1 mph 23.0 mph N/A   Mostly Cloudy
9:05 PM 79.0 °F - 73.0 °F 82% 29.74 in 10.0 mi West 15.0 mph - N/A   Mostly Cloudy
9:53 PM 79.0 °F - 73.0 °F 82% 29.77 in 10.0 mi West 13.8 mph - N/A   Mostly Cloudy
10:20 PM 79.0 °F - 73.0 °F 82% 29.78 in 10.0 mi West 15.0 mph 20.7 mph N/A   Scattered Clouds
10:53 PM 79.0 °F - 73.0 °F 82% 29.80 in 10.0 mi West 11.5 mph - N/A   Mostly Cloudy
11:27 PM 79.0 °F - 73.0 °F 82% 29.80 in 10.0 mi West 11.5 mph - N/A   Mostly Cloudy
11:53 PM 79.0 °F - 73.0 °F 82% 29.81 in 10.0 mi West 10.4 mph - N/A   Scattered Clouds